Date_Time,Julian_Date,Latitude,Longitude,Instrument_Depth,Water_Temperature
(yyyy-mm-dd hh:mn:ss UTC),(JD),(+ deg. North),(+ deg. East),(m),(deg. C)
1982-10-18 20:30:00 UTC,2445261.354167,28.7317,-95.2428,0036,24.9000
1982-10-18 21:00:00 UTC,2445261.375000,28.7317,-95.2428,0036,24.9000
1982-10-18 21:30:00 UTC,2445261.395833,28.7317,-95.2428,0036,24.9000
1982-10-18 22:00:00 UTC,2445261.416667,28.7317,-95.2428,0036,25.0000
1982-10-18 22:30:00 UTC,2445261.437500,28.7317,-95.2428,0036,25.0000
1982-10-18 23:00:00 UTC,2445261.458333,28.7317,-95.2428,0036,25.0000
1982-10-18 23:30:00 UTC,2445261.479167,28.7317,-95.2428,0036,25.0000
1982-10-19 00:00:00 UTC,2445261.500000,28.7317,-95.2428,0036,25.0000
1982-10-19 00:30:00 UTC,2445261.520833,28.7317,-95.2428,0036,25.0000
1982-10-19 01:00:00 UTC,2445261.541667,28.7317,-95.2428,0036,25.0000
1982-10-19 01:30:00 UTC,2445261.562500,28.7317,-95.2428,0036,24.9000
1982-10-19 02:00:00 UTC,2445261.583333,28.7317,-95.2428,0036,24.9000
1982-10-19 02:30:00 UTC,2445261.604167,28.7317,-95.2428,0036,25.0000
1982-10-19 03:00:00 UTC,2445261.625000,28.7317,-95.2428,0036,25.0000
1982-10-19 03:30:00 UTC,2445261.645833,28.7317,-95.2428,0036,25.0000
1982-10-19 04:00:00 UTC,2445261.666667,28.7317,-95.2428,0036,25.0000
1982-10-19 04:30:00 UTC,2445261.687500,28.7317,-95.2428,0036,25.0000
1982-10-19 05:00:00 UTC,2445261.708333,28.7317,-95.2428,0036,24.9000
1982-10-19 05:30:00 UTC,2445261.729167,28.7317,-95.2428,0036,24.9000
1982-10-19 06:00:00 UTC,2445261.750000,28.7317,-95.2428,0036,24.9000
1982-10-19 06:30:00 UTC,2445261.770833,28.7317,-95.2428,0036,24.9000
1982-10-19 07:00:00 UTC,2445261.791667,28.7317,-95.2428,0036,24.8000
1982-10-19 07:30:00 UTC,2445261.812500,28.7317,-95.2428,0036,24.7000
1982-10-19 08:00:00 UTC,2445261.833333,28.7317,-95.2428,0036,24.8000
1982-10-19 08:30:00 UTC,2445261.854167,28.7317,-95.2428,0036,24.9000
1982-10-19 09:00:00 UTC,2445261.875000,28.7317,-95.2428,0036,24.9000
1982-10-19 09:30:00 UTC,2445261.895833,28.7317,-95.2428,0036,24.9000
1982-10-19 10:00:00 UTC,2445261.916667,28.7317,-95.2428,0036,24.9000
1982-10-19 10:30:00 UTC,2445261.937500,28.7317,-95.2428,0036,24.9000
1982-10-19 11:00:00 UTC,2445261.958333,28.7317,-95.2428,0036,24.9000
1982-10-19 11:30:00 UTC,2445261.979167,28.7317,-95.2428,0036,24.8000
1982-10-19 12:00:00 UTC,2445262.000000,28.7317,-95.2428,0036,24.7000
1982-10-19 12:30:00 UTC,2445262.020833,28.7317,-95.2428,0036,24.6000
1982-10-19 13:00:00 UTC,2445262.041667,28.7317,-95.2428,0036,24.5000
1982-10-19 13:30:00 UTC,2445262.062500,28.7317,-95.2428,0036,24.5000
1982-10-19 14:00:00 UTC,2445262.083333,28.7317,-95.2428,0036,24.5000
1982-10-19 14:30:00 UTC,2445262.104167,28.7317,-95.2428,0036,24.5000
1982-10-19 15:00:00 UTC,2445262.125000,28.7317,-95.2428,0036,24.6000
1982-10-19 15:30:00 UTC,2445262.145833,28.7317,-95.2428,0036,24.6000
1982-10-19 16:00:00 UTC,2445262.166667,28.7317,-95.2428,0036,24.7000
1982-10-19 16:30:00 UTC,2445262.187500,28.7317,-95.2428,0036,24.7000
1982-10-19 17:00:00 UTC,2445262.208333,28.7317,-95.2428,0036,24.7000
1982-10-19 17:30:00 UTC,2445262.229167,28.7317,-95.2428,0036,24.8000
1982-10-19 18:00:00 UTC,2445262.250000,28.7317,-95.2428,0036,24.8000
1982-10-19 18:30:00 UTC,2445262.270833,28.7317,-95.2428,0036,24.9000
1982-10-19 19:00:00 UTC,2445262.291667,28.7317,-95.2428,0036,24.9000
1982-10-19 19:30:00 UTC,2445262.312500,28.7317,-95.2428,0036,25.0000
1982-10-19 20:00:00 UTC,2445262.333333,28.7317,-95.2428,0036,25.0000
1982-10-19 20:30:00 UTC,2445262.354167,28.7317,-95.2428,0036,25.0000
1982-10-19 21:00:00 UTC,2445262.375000,28.7317,-95.2428,0036,25.1000
1982-10-19 21:30:00 UTC,2445262.395833,28.7317,-95.2428,0036,25.1000
1982-10-19 22:00:00 UTC,2445262.416667,28.7317,-95.2428,0036,25.1000
1982-10-19 22:30:00 UTC,2445262.437500,28.7317,-95.2428,0036,25.1000
1982-10-19 23:00:00 UTC,2445262.458333,28.7317,-95.2428,0036,25.1000
1982-10-19 23:30:00 UTC,2445262.479167,28.7317,-95.2428,0036,25.1000
1982-10-20 00:00:00 UTC,2445262.500000,28.7317,-95.2428,0036,25.1000
1982-10-20 00:30:00 UTC,2445262.520833,28.7317,-95.2428,0036,25.1000
1982-10-20 01:00:00 UTC,2445262.541667,28.7317,-95.2428,0036,25.1000
1982-10-20 01:30:00 UTC,2445262.562500,28.7317,-95.2428,0036,25.1000
1982-10-20 02:00:00 UTC,2445262.583333,28.7317,-95.2428,0036,25.0000
1982-10-20 02:30:00 UTC,2445262.604167,28.7317,-95.2428,0036,25.0000
1982-10-20 03:00:00 UTC,2445262.625000,28.7317,-95.2428,0036,25.1000
1982-10-20 03:30:00 UTC,2445262.645833,28.7317,-95.2428,0036,25.1000
1982-10-20 04:00:00 UTC,2445262.666667,28.7317,-95.2428,0036,25.0000
1982-10-20 04:30:00 UTC,2445262.687500,28.7317,-95.2428,0036,25.0000
1982-10-20 05:00:00 UTC,2445262.708333,28.7317,-95.2428,0036,25.0000
1982-10-20 05:30:00 UTC,2445262.729167,28.7317,-95.2428,0036,24.9000
1982-10-20 06:00:00 UTC,2445262.750000,28.7317,-95.2428,0036,24.9000
1982-10-20 06:30:00 UTC,2445262.770833,28.7317,-95.2428,0036,24.9000
1982-10-20 07:00:00 UTC,2445262.791667,28.7317,-95.2428,0036,24.8000
1982-10-20 07:30:00 UTC,2445262.812500,28.7317,-95.2428,0036,24.8000
1982-10-20 08:00:00 UTC,2445262.833333,28.7317,-95.2428,0036,24.8000
1982-10-20 08:30:00 UTC,2445262.854167,28.7317,-95.2428,0036,24.8000
1982-10-20 09:00:00 UTC,2445262.875000,28.7317,-95.2428,0036,24.8000
1982-10-20 09:30:00 UTC,2445262.895833,28.7317,-95.2428,0036,24.8000
1982-10-20 10:00:00 UTC,2445262.916667,28.7317,-95.2428,0036,24.8000
1982-10-20 10:30:00 UTC,2445262.937500,28.7317,-95.2428,0036,24.8000
1982-10-20 11:00:00 UTC,2445262.958333,28.7317,-95.2428,0036,24.9000
1982-10-20 11:30:00 UTC,2445262.979167,28.7317,-95.2428,0036,24.9000
1982-10-20 12:00:00 UTC,2445263.000000,28.7317,-95.2428,0036,25.0000
1982-10-20 12:30:00 UTC,2445263.020833,28.7317,-95.2428,0036,25.0000
1982-10-20 13:00:00 UTC,2445263.041667,28.7317,-95.2428,0036,24.9000
1982-10-20 13:30:00 UTC,2445263.062500,28.7317,-95.2428,0036,24.9000
1982-10-20 14:00:00 UTC,2445263.083333,28.7317,-95.2428,0036,24.8000
1982-10-20 14:30:00 UTC,2445263.104167,28.7317,-95.2428,0036,24.8000
1982-10-20 15:00:00 UTC,2445263.125000,28.7317,-95.2428,0036,24.8000
1982-10-20 15:30:00 UTC,2445263.145833,28.7317,-95.2428,0036,24.8000
1982-10-20 16:00:00 UTC,2445263.166667,28.7317,-95.2428,0036,24.8000
1982-10-20 16:30:00 UTC,2445263.187500,28.7317,-95.2428,0036,24.8000
1982-10-20 17:00:00 UTC,2445263.208333,28.7317,-95.2428,0036,24.7000
1982-10-20 17:30:00 UTC,2445263.229167,28.7317,-95.2428,0036,24.6000
1982-10-20 18:00:00 UTC,2445263.250000,28.7317,-95.2428,0036,24.6000
1982-10-20 18:30:00 UTC,2445263.270833,28.7317,-95.2428,0036,24.7000
1982-10-20 19:00:00 UTC,2445263.291667,28.7317,-95.2428,0036,24.7000
1982-10-20 19:30:00 UTC,2445263.312500,28.7317,-95.2428,0036,24.8000
1982-10-20 20:00:00 UTC,2445263.333333,28.7317,-95.2428,0036,24.8000
1982-10-20 20:30:00 UTC,2445263.354167,28.7317,-95.2428,0036,24.8000
1982-10-20 21:00:00 UTC,2445263.375000,28.7317,-95.2428,0036,24.9000
1982-10-20 21:30:00 UTC,2445263.395833,28.7317,-95.2428,0036,24.9000
1982-10-20 22:00:00 UTC,2445263.416667,28.7317,-95.2428,0036,24.9000
1982-10-20 22:30:00 UTC,2445263.437500,28.7317,-95.2428,0036,24.9000
1982-10-20 23:00:00 UTC,2445263.458333,28.7317,-95.2428,0036,24.9000
1982-10-20 23:30:00 UTC,2445263.479167,28.7317,-95.2428,0036,24.9000
1982-10-21 00:00:00 UTC,2445263.500000,28.7317,-95.2428,0036,24.9000
1982-10-21 00:30:00 UTC,2445263.520833,28.7317,-95.2428,0036,24.9000
1982-10-21 01:00:00 UTC,2445263.541667,28.7317,-95.2428,0036,24.9000
1982-10-21 01:30:00 UTC,2445263.562500,28.7317,-95.2428,0036,24.9000
1982-10-21 02:00:00 UTC,2445263.583333,28.7317,-95.2428,0036,24.9000
1982-10-21 02:30:00 UTC,2445263.604167,28.7317,-95.2428,0036,24.9000
1982-10-21 03:00:00 UTC,2445263.625000,28.7317,-95.2428,0036,24.9000
1982-10-21 03:30:00 UTC,2445263.645833,28.7317,-95.2428,0036,24.9000
1982-10-21 04:00:00 UTC,2445263.666667,28.7317,-95.2428,0036,24.9000
1982-10-21 04:30:00 UTC,2445263.687500,28.7317,-95.2428,0036,24.8000
1982-10-21 05:00:00 UTC,2445263.708333,28.7317,-95.2428,0036,24.8000
1982-10-21 05:30:00 UTC,2445263.729167,28.7317,-95.2428,0036,24.8000
1982-10-21 06:00:00 UTC,2445263.750000,28.7317,-95.2428,0036,24.8000
1982-10-21 06:30:00 UTC,2445263.770833,28.7317,-95.2428,0036,24.8000
1982-10-21 07:00:00 UTC,2445263.791667,28.7317,-95.2428,0036,24.8000
1982-10-21 07:30:00 UTC,2445263.812500,28.7317,-95.2428,0036,24.8000
1982-10-21 08:00:00 UTC,2445263.833333,28.7317,-95.2428,0036,24.8000
1982-10-21 08:30:00 UTC,2445263.854167,28.7317,-95.2428,0036,24.8000
1982-10-21 09:00:00 UTC,2445263.875000,28.7317,-95.2428,0036,24.8000
1982-10-21 09:30:00 UTC,2445263.895833,28.7317,-95.2428,0036,24.8000
1982-10-21 10:00:00 UTC,2445263.916667,28.7317,-95.2428,0036,24.8000
1982-10-21 10:30:00 UTC,2445263.937500,28.7317,-95.2428,0036,24.8000
1982-10-21 11:00:00 UTC,2445263.958333,28.7317,-95.2428,0036,24.8000
1982-10-21 11:30:00 UTC,2445263.979167,28.7317,-95.2428,0036,24.7000
1982-10-21 12:00:00 UTC,2445264.000000,28.7317,-95.2428,0036,24.7000
1982-10-21 12:30:00 UTC,2445264.020833,28.7317,-95.2428,0036,24.7000
1982-10-21 13:00:00 UTC,2445264.041667,28.7317,-95.2428,0036,24.7000
1982-10-21 13:30:00 UTC,2445264.062500,28.7317,-95.2428,0036,24.7000
1982-10-21 14:00:00 UTC,2445264.083333,28.7317,-95.2428,0036,24.7000
1982-10-21 14:30:00 UTC,2445264.104167,28.7317,-95.2428,0036,24.7000
1982-10-21 15:00:00 UTC,2445264.125000,28.7317,-95.2428,0036,24.7000
1982-10-21 15:30:00 UTC,2445264.145833,28.7317,-95.2428,0036,24.7000
1982-10-21 16:00:00 UTC,2445264.166667,28.7317,-95.2428,0036,24.7000
1982-10-21 16:30:00 UTC,2445264.187500,28.7317,-95.2428,0036,24.8000
1982-10-21 17:00:00 UTC,2445264.208333,28.7317,-95.2428,0036,24.8000
1982-10-21 17:30:00 UTC,2445264.229167,28.7317,-95.2428,0036,24.7000
1982-10-21 18:00:00 UTC,2445264.250000,28.7317,-95.2428,0036,24.7000
1982-10-21 18:30:00 UTC,2445264.270833,28.7317,-95.2428,0036,24.7000
1982-10-21 19:00:00 UTC,2445264.291667,28.7317,-95.2428,0036,24.7000
1982-10-21 19:30:00 UTC,2445264.312500,28.7317,-95.2428,0036,24.7000
1982-10-21 20:00:00 UTC,2445264.333333,28.7317,-95.2428,0036,24.7000
1982-10-21 20:30:00 UTC,2445264.354167,28.7317,-95.2428,0036,24.7000
1982-10-21 21:00:00 UTC,2445264.375000,28.7317,-95.2428,0036,24.7000
1982-10-21 21:30:00 UTC,2445264.395833,28.7317,-95.2428,0036,24.6000
1982-10-21 22:00:00 UTC,2445264.416667,28.7317,-95.2428,0036,24.6000
1982-10-21 22:30:00 UTC,2445264.437500,28.7317,-95.2428,0036,24.6000
1982-10-21 23:00:00 UTC,2445264.458333,28.7317,-95.2428,0036,24.6000
1982-10-21 23:30:00 UTC,2445264.479167,28.7317,-95.2428,0036,24.6000
1982-10-22 00:00:00 UTC,2445264.500000,28.7317,-95.2428,0036,24.6000
1982-10-22 00:30:00 UTC,2445264.520833,28.7317,-95.2428,0036,24.6000
1982-10-22 01:00:00 UTC,2445264.541667,28.7317,-95.2428,0036,24.6000
1982-10-22 01:30:00 UTC,2445264.562500,28.7317,-95.2428,0036,24.6000
1982-10-22 02:00:00 UTC,2445264.583333,28.7317,-95.2428,0036,24.6000
1982-10-22 02:30:00 UTC,2445264.604167,28.7317,-95.2428,0036,24.6000
1982-10-22 03:00:00 UTC,2445264.625000,28.7317,-95.2428,0036,24.6000
1982-10-22 03:30:00 UTC,2445264.645833,28.7317,-95.2428,0036,24.6000
1982-10-22 04:00:00 UTC,2445264.666667,28.7317,-95.2428,0036,24.6000
1982-10-22 04:30:00 UTC,2445264.687500,28.7317,-95.2428,0036,24.6000
1982-10-22 05:00:00 UTC,2445264.708333,28.7317,-95.2428,0036,24.5000
1982-10-22 05:30:00 UTC,2445264.729167,28.7317,-95.2428,0036,24.5000
1982-10-22 06:00:00 UTC,2445264.750000,28.7317,-95.2428,0036,24.5000
1982-10-22 06:30:00 UTC,2445264.770833,28.7317,-95.2428,0036,24.5000
1982-10-22 07:00:00 UTC,2445264.791667,28.7317,-95.2428,0036,24.5000
1982-10-22 07:30:00 UTC,2445264.812500,28.7317,-95.2428,0036,24.4000
1982-10-22 08:00:00 UTC,2445264.833333,28.7317,-95.2428,0036,24.4000
1982-10-22 08:30:00 UTC,2445264.854167,28.7317,-95.2428,0036,24.4000
1982-10-22 09:00:00 UTC,2445264.875000,28.7317,-95.2428,0036,24.3000
1982-10-22 09:30:00 UTC,2445264.895833,28.7317,-95.2428,0036,24.3000
1982-10-22 10:00:00 UTC,2445264.916667,28.7317,-95.2428,0036,24.3000
1982-10-22 10:30:00 UTC,2445264.937500,28.7317,-95.2428,0036,24.3000
1982-10-22 11:00:00 UTC,2445264.958333,28.7317,-95.2428,0036,24.2000
1982-10-22 11:30:00 UTC,2445264.979167,28.7317,-95.2428,0036,24.2000
1982-10-22 12:00:00 UTC,2445265.000000,28.7317,-95.2428,0036,24.2000
1982-10-22 12:30:00 UTC,2445265.020833,28.7317,-95.2428,0036,24.2000
1982-10-22 13:00:00 UTC,2445265.041667,28.7317,-95.2428,0036,24.2000
1982-10-22 13:30:00 UTC,2445265.062500,28.7317,-95.2428,0036,24.1000
1982-10-22 14:00:00 UTC,2445265.083333,28.7317,-95.2428,0036,24.1000
1982-10-22 14:30:00 UTC,2445265.104167,28.7317,-95.2428,0036,24.1000
1982-10-22 15:00:00 UTC,2445265.125000,28.7317,-95.2428,0036,24.1000
1982-10-22 15:30:00 UTC,2445265.145833,28.7317,-95.2428,0036,24.1000
1982-10-22 16:00:00 UTC,2445265.166667,28.7317,-95.2428,0036,24.1000
1982-10-22 16:30:00 UTC,2445265.187500,28.7317,-95.2428,0036,24.1000
1982-10-22 17:00:00 UTC,2445265.208333,28.7317,-95.2428,0036,24.1000
1982-10-22 17:30:00 UTC,2445265.229167,28.7317,-95.2428,0036,24.2000
1982-10-22 18:00:00 UTC,2445265.250000,28.7317,-95.2428,0036,24.2000
1982-10-22 18:30:00 UTC,2445265.270833,28.7317,-95.2428,0036,24.2000
1982-10-22 19:00:00 UTC,2445265.291667,28.7317,-95.2428,0036,24.1000
1982-10-22 19:30:00 UTC,2445265.312500,28.7317,-95.2428,0036,24.1000
1982-10-22 20:00:00 UTC,2445265.333333,28.7317,-95.2428,0036,24.1000
1982-10-22 20:30:00 UTC,2445265.354167,28.7317,-95.2428,0036,24.1000
1982-10-22 21:00:00 UTC,2445265.375000,28.7317,-95.2428,0036,24.1000
1982-10-22 21:30:00 UTC,2445265.395833,28.7317,-95.2428,0036,24.1000
1982-10-22 22:00:00 UTC,2445265.416667,28.7317,-95.2428,0036,24.1000
1982-10-22 22:30:00 UTC,2445265.437500,28.7317,-95.2428,0036,24.1000
1982-10-22 23:00:00 UTC,2445265.458333,28.7317,-95.2428,0036,24.1000
1982-10-22 23:30:00 UTC,2445265.479167,28.7317,-95.2428,0036,24.0000
1982-10-23 00:00:00 UTC,2445265.500000,28.7317,-95.2428,0036,24.0000
1982-10-23 00:30:00 UTC,2445265.520833,28.7317,-95.2428,0036,24.0000
1982-10-23 01:00:00 UTC,2445265.541667,28.7317,-95.2428,0036,24.0000
1982-10-23 01:30:00 UTC,2445265.562500,28.7317,-95.2428,0036,24.0000
1982-10-23 02:00:00 UTC,2445265.583333,28.7317,-95.2428,0036,24.0000
1982-10-23 02:30:00 UTC,2445265.604167,28.7317,-95.2428,0036,23.9000
1982-10-23 03:00:00 UTC,2445265.625000,28.7317,-95.2428,0036,23.9000
1982-10-23 03:30:00 UTC,2445265.645833,28.7317,-95.2428,0036,23.9000
1982-10-23 04:00:00 UTC,2445265.666667,28.7317,-95.2428,0036,23.9000
1982-10-23 04:30:00 UTC,2445265.687500,28.7317,-95.2428,0036,23.9000
1982-10-23 05:00:00 UTC,2445265.708333,28.7317,-95.2428,0036,23.9000
1982-10-23 05:30:00 UTC,2445265.729167,28.7317,-95.2428,0036,23.8000
1982-10-23 06:00:00 UTC,2445265.750000,28.7317,-95.2428,0036,23.8000
1982-10-23 06:30:00 UTC,2445265.770833,28.7317,-95.2428,0036,23.8000
1982-10-23 07:00:00 UTC,2445265.791667,28.7317,-95.2428,0036,23.8000
1982-10-23 07:30:00 UTC,2445265.812500,28.7317,-95.2428,0036,23.8000
1982-10-23 08:00:00 UTC,2445265.833333,28.7317,-95.2428,0036,23.8000
1982-10-23 08:30:00 UTC,2445265.854167,28.7317,-95.2428,0036,23.8000
1982-10-23 09:00:00 UTC,2445265.875000,28.7317,-95.2428,0036,23.7000
1982-10-23 09:30:00 UTC,2445265.895833,28.7317,-95.2428,0036,23.7000
1982-10-23 10:00:00 UTC,2445265.916667,28.7317,-95.2428,0036,23.7000
1982-10-23 10:30:00 UTC,2445265.937500,28.7317,-95.2428,0036,23.7000
1982-10-23 11:00:00 UTC,2445265.958333,28.7317,-95.2428,0036,23.7000
1982-10-23 11:30:00 UTC,2445265.979167,28.7317,-95.2428,0036,23.7000
1982-10-23 12:00:00 UTC,2445266.000000,28.7317,-95.2428,0036,23.6000
1982-10-23 12:30:00 UTC,2445266.020833,28.7317,-95.2428,0036,23.6000
1982-10-23 13:00:00 UTC,2445266.041667,28.7317,-95.2428,0036,23.6000
1982-10-23 13:30:00 UTC,2445266.062500,28.7317,-95.2428,0036,23.7000
1982-10-23 14:00:00 UTC,2445266.083333,28.7317,-95.2428,0036,23.7000
1982-10-23 14:30:00 UTC,2445266.104167,28.7317,-95.2428,0036,23.7000
1982-10-23 15:00:00 UTC,2445266.125000,28.7317,-95.2428,0036,23.7000
1982-10-23 15:30:00 UTC,2445266.145833,28.7317,-95.2428,0036,23.7000
1982-10-23 16:00:00 UTC,2445266.166667,28.7317,-95.2428,0036,23.6000
1982-10-23 16:30:00 UTC,2445266.187500,28.7317,-95.2428,0036,23.6000
1982-10-23 17:00:00 UTC,2445266.208333,28.7317,-95.2428,0036,23.5000
1982-10-23 17:30:00 UTC,2445266.229167,28.7317,-95.2428,0036,23.5000
1982-10-23 18:00:00 UTC,2445266.250000,28.7317,-95.2428,0036,23.6000
1982-10-23 18:30:00 UTC,2445266.270833,28.7317,-95.2428,0036,23.6000
1982-10-23 19:00:00 UTC,2445266.291667,28.7317,-95.2428,0036,23.6000
1982-10-23 19:30:00 UTC,2445266.312500,28.7317,-95.2428,0036,23.6000
1982-10-23 20:00:00 UTC,2445266.333333,28.7317,-95.2428,0036,23.6000
1982-10-23 20:30:00 UTC,2445266.354167,28.7317,-95.2428,0036,23.6000
1982-10-23 21:00:00 UTC,2445266.375000,28.7317,-95.2428,0036,23.5000
1982-10-23 21:30:00 UTC,2445266.395833,28.7317,-95.2428,0036,23.5000
1982-10-23 22:00:00 UTC,2445266.416667,28.7317,-95.2428,0036,23.5000
1982-10-23 22:30:00 UTC,2445266.437500,28.7317,-95.2428,0036,23.6000
1982-10-23 23:00:00 UTC,2445266.458333,28.7317,-95.2428,0036,23.6000
1982-10-23 23:30:00 UTC,2445266.479167,28.7317,-95.2428,0036,23.6000
1982-10-24 00:00:00 UTC,2445266.500000,28.7317,-95.2428,0036,23.6000
1982-10-24 00:30:00 UTC,2445266.520833,28.7317,-95.2428,0036,23.6000
1982-10-24 01:00:00 UTC,2445266.541667,28.7317,-95.2428,0036,23.6000
1982-10-24 01:30:00 UTC,2445266.562500,28.7317,-95.2428,0036,23.6000
1982-10-24 02:00:00 UTC,2445266.583333,28.7317,-95.2428,0036,23.6000
1982-10-24 02:30:00 UTC,2445266.604167,28.7317,-95.2428,0036,23.6000
1982-10-24 03:00:00 UTC,2445266.625000,28.7317,-95.2428,0036,23.6000
1982-10-24 03:30:00 UTC,2445266.645833,28.7317,-95.2428,0036,23.6000
1982-10-24 04:00:00 UTC,2445266.666667,28.7317,-95.2428,0036,23.6000
1982-10-24 04:30:00 UTC,2445266.687500,28.7317,-95.2428,0036,23.5000
1982-10-24 05:00:00 UTC,2445266.708333,28.7317,-95.2428,0036,23.5000
1982-10-24 05:30:00 UTC,2445266.729167,28.7317,-95.2428,0036,23.5000
1982-10-24 06:00:00 UTC,2445266.750000,28.7317,-95.2428,0036,23.4000
1982-10-24 06:30:00 UTC,2445266.770833,28.7317,-95.2428,0036,23.4000
1982-10-24 07:00:00 UTC,2445266.791667,28.7317,-95.2428,0036,23.4000
1982-10-24 07:30:00 UTC,2445266.812500,28.7317,-95.2428,0036,23.4000
1982-10-24 08:00:00 UTC,2445266.833333,28.7317,-95.2428,0036,23.4000
1982-10-24 08:30:00 UTC,2445266.854167,28.7317,-95.2428,0036,23.4000
1982-10-24 09:00:00 UTC,2445266.875000,28.7317,-95.2428,0036,23.4000
1982-10-24 09:30:00 UTC,2445266.895833,28.7317,-95.2428,0036,23.4000
1982-10-24 10:00:00 UTC,2445266.916667,28.7317,-95.2428,0036,23.4000
1982-10-24 10:30:00 UTC,2445266.937500,28.7317,-95.2428,0036,23.4000
1982-10-24 11:00:00 UTC,2445266.958333,28.7317,-95.2428,0036,23.5000
1982-10-24 11:30:00 UTC,2445266.979167,28.7317,-95.2428,0036,23.5000
1982-10-24 12:00:00 UTC,2445267.000000,28.7317,-95.2428,0036,23.5000
1982-10-24 12:30:00 UTC,2445267.020833,28.7317,-95.2428,0036,23.5000
1982-10-24 13:00:00 UTC,2445267.041667,28.7317,-95.2428,0036,23.5000
1982-10-24 13:30:00 UTC,2445267.062500,28.7317,-95.2428,0036,23.5000
1982-10-24 14:00:00 UTC,2445267.083333,28.7317,-95.2428,0036,23.5000
1982-10-24 14:30:00 UTC,2445267.104167,28.7317,-95.2428,0036,23.5000
1982-10-24 15:00:00 UTC,2445267.125000,28.7317,-95.2428,0036,23.4000
1982-10-24 15:30:00 UTC,2445267.145833,28.7317,-95.2428,0036,23.4000
1982-10-24 16:00:00 UTC,2445267.166667,28.7317,-95.2428,0036,23.3000
1982-10-24 16:30:00 UTC,2445267.187500,28.7317,-95.2428,0036,23.3000
1982-10-24 17:00:00 UTC,2445267.208333,28.7317,-95.2428,0036,23.3000
1982-10-24 17:30:00 UTC,2445267.229167,28.7317,-95.2428,0036,23.3000
1982-10-24 18:00:00 UTC,2445267.250000,28.7317,-95.2428,0036,23.3000
1982-10-24 18:30:00 UTC,2445267.270833,28.7317,-95.2428,0036,23.3000
1982-10-24 19:00:00 UTC,2445267.291667,28.7317,-95.2428,0036,23.3000
1982-10-24 19:30:00 UTC,2445267.312500,28.7317,-95.2428,0036,23.3000
1982-10-24 20:00:00 UTC,2445267.333333,28.7317,-95.2428,0036,23.3000
1982-10-24 20:30:00 UTC,2445267.354167,28.7317,-95.2428,0036,23.2000
1982-10-24 21:00:00 UTC,2445267.375000,28.7317,-95.2428,0036,23.2000
1982-10-24 21:30:00 UTC,2445267.395833,28.7317,-95.2428,0036,23.2000
1982-10-24 22:00:00 UTC,2445267.416667,28.7317,-95.2428,0036,23.2000
1982-10-24 22:30:00 UTC,2445267.437500,28.7317,-95.2428,0036,23.3000
1982-10-24 23:00:00 UTC,2445267.458333,28.7317,-95.2428,0036,23.3000
1982-10-24 23:30:00 UTC,2445267.479167,28.7317,-95.2428,0036,23.3000
1982-10-25 00:00:00 UTC,2445267.500000,28.7317,-95.2428,0036,23.4000
1982-10-25 00:30:00 UTC,2445267.520833,28.7317,-95.2428,0036,23.5000
1982-10-25 01:00:00 UTC,2445267.541667,28.7317,-95.2428,0036,23.5000
1982-10-25 01:30:00 UTC,2445267.562500,28.7317,-95.2428,0036,23.4000
1982-10-25 02:00:00 UTC,2445267.583333,28.7317,-95.2428,0036,23.4000
1982-10-25 02:30:00 UTC,2445267.604167,28.7317,-95.2428,0036,23.3000
1982-10-25 03:00:00 UTC,2445267.625000,28.7317,-95.2428,0036,23.3000
1982-10-25 03:30:00 UTC,2445267.645833,28.7317,-95.2428,0036,23.3000
1982-10-25 04:00:00 UTC,2445267.666667,28.7317,-95.2428,0036,23.4000
1982-10-25 04:30:00 UTC,2445267.687500,28.7317,-95.2428,0036,23.4000
1982-10-25 05:00:00 UTC,2445267.708333,28.7317,-95.2428,0036,23.4000
1982-10-25 05:30:00 UTC,2445267.729167,28.7317,-95.2428,0036,23.3000
1982-10-25 06:00:00 UTC,2445267.750000,28.7317,-95.2428,0036,23.3000
1982-10-25 06:30:00 UTC,2445267.770833,28.7317,-95.2428,0036,23.3000
1982-10-25 07:00:00 UTC,2445267.791667,28.7317,-95.2428,0036,23.3000
1982-10-25 07:30:00 UTC,2445267.812500,28.7317,-95.2428,0036,23.3000
1982-10-25 08:00:00 UTC,2445267.833333,28.7317,-95.2428,0036,23.4000
1982-10-25 08:30:00 UTC,2445267.854167,28.7317,-95.2428,0036,23.3000
1982-10-25 09:00:00 UTC,2445267.875000,28.7317,-95.2428,0036,23.2000
1982-10-25 09:30:00 UTC,2445267.895833,28.7317,-95.2428,0036,23.2000
1982-10-25 10:00:00 UTC,2445267.916667,28.7317,-95.2428,0036,23.2000
1982-10-25 10:30:00 UTC,2445267.937500,28.7317,-95.2428,0036,23.2000
1982-10-25 11:00:00 UTC,2445267.958333,28.7317,-95.2428,0036,23.2000
1982-10-25 11:30:00 UTC,2445267.979167,28.7317,-95.2428,0036,23.2000
1982-10-25 12:00:00 UTC,2445268.000000,28.7317,-95.2428,0036,23.1000
1982-10-25 12:30:00 UTC,2445268.020833,28.7317,-95.2428,0036,23.1000
1982-10-25 13:00:00 UTC,2445268.041667,28.7317,-95.2428,0036,23.1000
1982-10-25 13:30:00 UTC,2445268.062500,28.7317,-95.2428,0036,23.1000
1982-10-25 14:00:00 UTC,2445268.083333,28.7317,-95.2428,0036,23.1000
1982-10-25 14:30:00 UTC,2445268.104167,28.7317,-95.2428,0036,23.1000
1982-10-25 15:00:00 UTC,2445268.125000,28.7317,-95.2428,0036,23.1000
1982-10-25 15:30:00 UTC,2445268.145833,28.7317,-95.2428,0036,23.1000
1982-10-25 16:00:00 UTC,2445268.166667,28.7317,-95.2428,0036,23.1000
1982-10-25 16:30:00 UTC,2445268.187500,28.7317,-95.2428,0036,23.1000
1982-10-25 17:00:00 UTC,2445268.208333,28.7317,-95.2428,0036,23.1000
1982-10-25 17:30:00 UTC,2445268.229167,28.7317,-95.2428,0036,23.1000
1982-10-25 18:00:00 UTC,2445268.250000,28.7317,-95.2428,0036,23.1000
1982-10-25 18:30:00 UTC,2445268.270833,28.7317,-95.2428,0036,23.2000
1982-10-25 19:00:00 UTC,2445268.291667,28.7317,-95.2428,0036,23.2000
1982-10-25 19:30:00 UTC,2445268.312500,28.7317,-95.2428,0036,23.2000
1982-10-25 20:00:00 UTC,2445268.333333,28.7317,-95.2428,0036,23.3000
1982-10-25 20:30:00 UTC,2445268.354167,28.7317,-95.2428,0036,23.2000
1982-10-25 21:00:00 UTC,2445268.375000,28.7317,-95.2428,0036,23.2000
1982-10-25 21:30:00 UTC,2445268.395833,28.7317,-95.2428,0036,23.2000
1982-10-25 22:00:00 UTC,2445268.416667,28.7317,-95.2428,0036,23.2000
1982-10-25 22:30:00 UTC,2445268.437500,28.7317,-95.2428,0036,23.2000
1982-10-25 23:00:00 UTC,2445268.458333,28.7317,-95.2428,0036,23.1000
1982-10-25 23:30:00 UTC,2445268.479167,28.7317,-95.2428,0036,23.1000
1982-10-26 00:00:00 UTC,2445268.500000,28.7317,-95.2428,0036,23.1000
1982-10-26 00:30:00 UTC,2445268.520833,28.7317,-95.2428,0036,23.0000